Overview Statistics Trail Chart Weather Telemetry Raw packets
 

This is the latest recevied weather packets stored in our database for station/object KA1JKB. If no packets are shown the sender has not sent any weather packets the latest 10 day(s).

<< 111 112 113 114 >>
Time Temp. Humidity Pressure Rain* Wind** Luminosity Snow
1787613202 21.67° C 71% 1014.7 hPa 0 mm - 62 W/m² -
1787612898 21.67° C 70% 1014.6 hPa 0 mm - 69 W/m² -
1787612594 22.22° C 70% 1014.6 hPa 0 mm - 73 W/m² -
1787612290 22.22° C 70% 1014.6 hPa 0 mm - 69 W/m² -
1787611986 22.22° C 69% 1014.6 hPa 0 mm - 72 W/m² -
1787611682 22.22° C 68% 1014.7 hPa 0 mm - 82 W/m² -
1787611378 22.22° C 67% 1014.4 hPa 0 mm - 87 W/m² -
1787611078 22.78° C 67% 1014.6 hPa 0 mm - 106 W/m² -
1787610775 23.33° C 65% 1014.7 hPa 0 mm - 117 W/m² -
1787610470 23.33° C 65% 1014.6 hPa 0 mm - 108 W/m² -
1787610169 23.89° C 62% 1014.3 hPa 0 mm - 253 W/m² -
1787609869 23.89° C 60% 1014.2 hPa 0 mm - 316 W/m² -
1787609563 24.44° C 60% 1014.2 hPa 0 mm - 321 W/m² -
1787609263 24.44° C 61% 1014 hPa 0 mm - 335 W/m² -
1787608963 23.89° C 61% 1014.1 hPa 0 mm - 385 W/m² -
1787608657 23.89° C 61% 1014.2 hPa 0 mm - 140 W/m² -
1787608352 23.33° C 63% 1014.2 hPa 0 mm - 425 W/m² -
1787608050 23.89° C 61% 1014 hPa 0 mm - 139 W/m² -
1787607746 23.89° C 62% 1013.9 hPa 0 mm - 305 W/m² -
1787607442 24.44° C 60% 1013.9 hPa 0 mm - 481 W/m² -
1787607140 23.89° C 59% 1013.9 hPa 0 mm - 456 W/m² -
1787606840 24.44° C 62% 1014 hPa 0 mm - 430 W/m² -
1787606538 24.44° C 62% 1014.1 hPa 0 mm - 501 W/m² -
1787606237 24.44° C 63% 1013.9 hPa 0 mm - 153 W/m² -
1787605937 24.44° C 61% 1013.6 hPa 0 mm - 510 W/m² -

* Rain latest hour (hover to see other rain measurements)
** Current wind speed in m/s (hover to see current wind gust speed)